Location: Tribune
(33.5984°N, 96.5905°W)
Time: 04:28:28
(UTC+00:00)

Daily predictions for brighter satellites

Satellite Brightness Start Highest point End
(mag) Time Altitude Azimuth Time Altitude Azimuth Time Altitude Azimuth
Cosmos 1743 Rocket 3.7 00:00:02 10° N 00:04:20 75° W 00:08:39 10° S
Cosmos 990 Rocket 4.1 00:02:47 10° NNW 00:07:58 80° WSW 00:13:06 10° SSE
CZ-2D R/B 3.4 00:05:22 10° SSE 00:09:04 50° ENE 00:12:47 10° N
CORIOLIS 4.1 00:03:48 10° SSE 00:09:10 86° ENE 00:14:37 10° NNW
CZ-4B DEB 4.2 00:05:25 10° SSE 00:10:55 75° ENE 00:16:25 10° N
Cosmos 1340 Rocket 4.2 00:08:16 10° NNW 00:12:08 43° W 00:15:59 10° SSW
Cosmos 1634 Rocket 4.1 00:05:54 10° S 00:12:13 89° E 00:18:35 10° N
Meteor 2-21 4.4 00:06:59 10° N 00:13:00 62° E 00:18:57 10° SSE
Cosmos 1328 Rocket 4.2 00:10:41 10° SSE 00:14:41 35° E 00:18:44 10° NNE
Cosmos 1666 Rocket 4.2 00:11:49 10° NNE 00:15:48 32° E 00:19:44 10° SE
CZ-2C R/B 2.4 00:13:11 10° SW 00:17:01 33° SSE 00:19:38 17° E
COSMOS 2406 4.5 00:17:36 10° SW 00:23:00 41° WNW 00:28:24 10° N
ARGOS 3.5 00:20:58 10° SE 00:26:00 41° ENE 00:31:03 10° N
Cosmos 2026 Rocket 3.9 00:20:25 10° N 00:26:33 89° W 00:32:36 10° S
Cosmos 1500 3.0 00:23:24 10° N 00:27:08 77° E 00:30:50 10° S
SKYMED 2 3.5 00:24:30 10° NNE 00:28:51 80° ESE 00:33:11 10° S
COSMOS 2455 3.7 00:23:30 10° SW 00:29:19 50° WNW 00:35:10 10° NNE
Landsat 5 3.4 00:26:39 11° NNE 00:30:31 54° E 00:34:22 10° S
Cosmos 858 Rocket 4.4 00:26:40 10° NNW 00:31:58 79° ENE 00:37:12 10° SSE
SL-08 RB Rocket 4.5 00:28:27 10° SE 00:32:29 30° ENE 00:36:30 10° NNE
MOS 1-B Rocket 4.4 00:27:42 10° N 00:33:45 75° WNW 00:40:47 10° SSW
USA 229 DEB 4.0 00:27:02 10° NNW 00:34:36 89° ENE 00:42:32 10° SSE
USA 229 4.0 00:27:08 10° NNW 00:34:43 88° ENE 00:42:38 10° SSE
Meteor 2-6 Rocket 4.2 00:29:17 10° S 00:35:01 63° E 00:40:38 10° NNE
PSLV R/B 4.3 00:31:51 10° S 00:35:26 56° W 00:39:05 10° NNW
Cosmos 1570 Rocket 4.0 00:33:11 10° SSW 00:38:26 85° WNW 00:43:41 10° NNE
PAYLOAD B 4.4 00:33:06 10° S 00:38:43 79° WSW 00:44:20 10° NNW
Cosmos 2180 Rocket 4.4 00:36:59 10° S 00:43:19 75° E 00:49:38 10° N
USA 234 3.2 00:37:41 10° SE 00:44:13 76° NE 00:50:44 10° NW
CZ-4B R/B 3.1 00:38:57 10° SSE 00:44:25 79° ENE 00:49:48 10° N
Sich 1 3.8 00:40:19 10° NNW 00:44:30 53° W 00:48:42 10° S
Cosmos 1814 Rocket 4.4 00:40:11 10° SSW 00:45:22 62° WNW 00:50:32 10° N
GPS 2-04 Rocket1 2.7 00:41:45 10° WNW 00:45:52 71° N 00:47:01 44° ENE
H-2A R/B 3.9 00:49:34 17° SE 00:49:34 17° SE 00:51:02 10° SSE
Cosmos 1900 4.5 00:46:43 10° SSW 00:51:33 71° WNW 00:54:41 22° NNE
BREEZE M DEB (TANK) 4.1 00:33:33 10° NW 00:51:51 85° NE 00:55:30 21° SE
deb Chang Zheng 4 3.5 00:47:33 10° SSE 00:51:51 90° NNW 00:56:11 10° NNW
CZ-4C R/B 2.7 00:51:56 58° NNE 00:52:31 82° ESE 00:55:52 10° S
Meteor 2-8 Rocket 4.4 00:47:38 10° S 00:53:46 89° E 00:59:58 10° N
CZ-2C R/B 3.1 00:48:49 10° N 00:53:53 58° WNW 00:58:56 10° SSW
Meteor 1-10 Rocket 4.2 00:48:23 10° S 00:54:10 67° E 00:59:17 13° NNE
Cosmos 1515 Rocket 3.6 00:51:37 10° S 00:55:57 56° E 00:56:50 46° NE
Cosmos 1666 2.5 00:53:00 10° N 00:56:44 84° W 01:00:25 10° S
Feng Yun 1-1 Rocket 4.3 01:00:22 10° SSE 01:06:12 63° ENE 01:12:01 10° N
X-37B 2.2 01:05:01 10° SW 01:06:34 28° SW 01:06:34 28° SW
Cosmos 1867 3.9 01:05:49 10° S 01:10:39 45° ESE 01:10:39 45° ESE
H-2A R/B 3.6 01:08:26 10° SSW 01:13:14 36° W 01:17:57 10° NNW
USA 276 3.7 01:11:23 10° WNW 01:13:40 35° W 01:13:40 35° W
APEX 3.3 01:11:10 10° SSW 01:15:26 76° WSW 01:15:26 76° WSW
CZ-4C R/B 3.1 01:09:42 10° NNW 01:17:17 61° ENE 01:21:47 30° SE
Cosmos 921 Rocket 3.8 01:19:20 10° SSW 01:23:21 47° WNW 01:24:15 40° NW
USA 32 3.8 01:20:08 10° S 01:25:21 85° E 01:25:45 76° NNE
Cosmos 1633 Rocket 4.4 01:24:19 10° NNW 01:28:23 39° W 01:32:26 10° SSW
Okean O Rocket 3.2 01:28:31 10° SSW 01:32:34 35° W 01:36:39 10° NNW
Cosmos 1980 Rocket 3.4 01:35:51 10° NW 01:41:06 41° WSW 01:46:18 10° S
SL-16 R/B 4.5 01:46:29 10° NNW 01:46:59 13° N 01:46:59 13° N
Cosmos 2266 Rocket 4.5 01:47:09 10° NNW 01:53:26 60° W 01:59:43 10° S
CZ-2C R/B 3.7 01:52:15 10° WSW 01:53:47 22° WSW 01:53:47 22° WSW
ATLAS 3B CENTAUR R/B 4.3 01:38:30 10° W 01:58:15 72° S 02:02:42 52° ESE
Meteor 1-27 Rocket 4.5 01:56:23 10° SSW 02:01:40 47° W 02:01:40 47° W
Cosmos 2369 Rocket 4.0 10:05:54 27° E 10:05:54 27° E 10:10:15 10° NE
CENTAUR R/B 4.2 10:38:46 21° N 10:38:46 21° N 10:41:05 10° NNE
DELTA 2 R/B (1) 4.0 10:47:13 57° ENE 10:47:13 57° ENE 10:51:38 10° ENE
Cosmos 2082 Rocket 3.9 10:50:12 20° S 10:50:12 20° S 10:51:55 10° S
Cosmos 2034 Rocket 3.8 10:51:33 84° NW 10:51:45 86° W 10:58:03 10° S
OAO 3 Rocket 4.0 10:55:21 47° SSE 10:55:21 47° SSE 10:59:07 10° ESE
Cosmos 1570 Rocket 3.8 11:11:19 76° W 11:11:28 76° WSW 11:16:43 10° S
Cosmos 1634 Rocket 4.4 11:06:37 10° N 11:12:50 62° E 11:18:57 10° SSE
Tsikada Rocket 3.9 11:09:40 10° SSW 11:15:43 58° W 11:21:53 10° N
Cosmos 1814 Rocket 4.2 11:17:43 51° SW 11:17:43 51° SW 11:22:01 10° S
ATLAS 5 CENTAUR R/B 3.9 11:15:22 10° SSE 11:18:06 19° ESE 11:20:55 10° ENE
Hubble Space Telescope 2.6 11:29:19 19° SSW 11:29:25 19° SSW 11:32:22 10° SSE
Meteor 1-31 Rocket 3.2 11:25:36 10° NNE 11:29:29 63° E 11:33:20 10° S
Centaur D-1A AC-35 4.0 11:27:36 15° SW 11:30:28 24° S 11:33:31 10° ESE
Cosmos 921 Rocket 3.2 11:30:39 25° N 11:33:13 74° ENE 11:37:40 10° SSE
Cosmos 1782 2.6 11:33:13 67° W 11:33:19 67° W 11:37:13 10° S
APEX 4.3 11:36:04 26° SSW 11:36:04 26° SSW 11:38:03 10° S
Cosmos 1862 3.2 11:32:00 10° S 11:35:56 84° E 11:39:53 10° N
H-2A R/B 2.5 11:34:47 24° N 11:36:56 68° WNW 11:40:40 10° SSW
Cosmos 1241 Rocket 4.3 11:34:24 28° NW 11:37:53 74° WSW 11:44:03 10° SSE
YAOGAN 6 4.2 11:40:32 21° SSW 11:40:32 21° SSW 11:41:54 10° SSW
Cosmos 2263 4.2 11:32:53 10° SSW 11:38:29 60° WNW 11:44:08 10° NNE
Okean 3 Rocket 3.6 11:35:15 10° S 11:39:46 85° E 11:44:19 10° N
SAR-Lupe-3 4.4 11:37:28 10° N 11:41:03 80° WNW 11:44:37 10° SSW
Meteor 1-26 Rocket 4.3 11:38:32 14° NNW 11:43:26 56° W 11:48:57 10° S
Cosmos 2208 Rocket 4.3 11:43:24 32° NW 11:45:21 45° WSW 11:50:23 10° S
Cosmos 1867 3.9 11:43:54 33° WNW 11:45:46 46° WSW 11:50:54 10° S
Cosmos 1503 Rocket 3.9 11:41:36 10° SSW 11:46:50 76° WNW 11:52:09 10° NNE
Cosmos 1151 Rocket 3.0 11:43:17 10° N 11:47:42 85° E 11:52:03 10° S
Gbstr 26 Del rocket 3.2 11:46:53 40° W 11:47:42 46° SW 11:51:56 10° SSE
Cosmos 1766 Rocket 3.4 11:44:20 10° SSW 11:48:38 64° W 11:52:56 10° N
Cosmos 2369 Rocket 2.7 11:47:55 28° W 11:49:26 33° WNW 11:54:27 10° N
BREEZE-M DEB (TANK) 4.1 11:37:03 17° NW 11:51:19 81° NE 11:56:15 10° SE
SJ-12 4.2 11:47:52 10° N 11:51:49 44° WNW 11:55:44 10° SW
